CW8484 Weather Reports


Display with metric or nautical units.
time (UTC)temp
F
wind
direction
speed
MPH
gust
MPH
rain 1hr
in
rain 24hr
in
rain mn
in
humidity
%
barometer
mb
20260504030404 37 179 2.0 5.0 0.00 0.00 0.00 71 1006.8
20260504025426 38 177 0.0 5.0 0.00 0.00 0.00 70 1006.9
20260504024403 38 187 0.0 5.0 0.00 0.00 0.00 68 1006.9
20260504023404 38 189 2.0 8.0 0.00 0.00 0.00 69 1007.0
20260504022425 37 182 2.0 8.0 0.00 0.00 0.00 70 1007.1
20260504021405 37 181 3.0 5.0 0.00 0.00 0.00 71 1007.1
20260504020425 37 182 0.0 5.0 0.00 0.00 0.00 72 1007.0
20260504015404 37 181 3.0 4.0 0.00 0.00 0.00 72 1007.1
20260504014404 37 181 2.0 7.0 0.00 0.01 0.00 71 1007.1
20260504013405 37 181 2.0 4.0 0.00 0.01 0.00 72 1007.1
20260504012425 37 181 2.0 5.0 0.00 0.01 0.00 72 1007.1
20260504011404 38 181 0.0 4.0 0.00 0.01 0.00 71 1007.0
20260504010403 38 181 0.0 4.0 0.00 0.02 0.00 69 1007.0
20260504005404 39 181 0.0 0.0 0.00 0.02 0.00 68 1006.9
20260504004403 39 180 0.0 3.0 0.00 0.02 0.00 66 1006.8
20260504003404 40 180 1.0 3.0 0.00 0.03 0.00 65 1006.8
20260504002404 41 180 1.0 3.0 0.00 0.03 0.00 63 1006.8
20260504001404 43 180 1.0 4.0 0.00 0.03 0.00 61 1006.7
20260504000425 45 181 0.0 0.0 0.00 0.03 0.00 58 1006.7
20260503235403 46 181 0.0 4.0 0.00 0.03 0.00 56 1006.6
20260503234404 48 180 0.0 5.0 0.00 0.03 0.00 51 1006.6
20260503233403 49 180 3.0 5.0 0.00 0.03 0.00 50 1006.5
20260503232425 49 183 2.0 5.0 0.00 0.03 0.00 50 1006.5
20260503231404 48 191 0.0 3.0 0.00 0.03 0.00 52 1006.5
20260503230403 48 191 0.0 5.0 0.00 0.03 0.00 52 1006.5
20260503225404 48 270 0.0 3.0 0.00 0.04 0.00 52 1006.6
20260503224425 48 270 0.0 4.0 0.00 0.04 0.00 50 1006.5
20260503223404 48 274 0.0 4.0 0.00 0.04 0.00 49 1006.5
20260503222404 49 275 0.0 4.0 0.00 0.04 0.00 48 1006.5
20260503221403 49 301 0.0 4.0 0.00 0.04 0.00 50 1006.5
20260503220404 49 302 2.0 5.0 0.00 0.04 0.00 48 1006.5
20260503215403 49 303 0.0 5.0 0.00 0.04 0.00 48 1006.5
20260503214404 49 266 0.0 4.0 0.00 0.04 0.00 50 1006.6
20260503213424 49 266 1.0 7.0 0.00 0.04 0.00 48 1006.6
20260503212404 49 332 1.0 8.0 0.00 0.04 0.00 50 1006.6
20260503211404 49 269 0.0 6.0 0.00 0.04 0.00 48 1006.5
20260503210445 49 291 2.0 6.0 0.00 0.04 0.00 48 1006.5
20260503205404 49 287 0.0 10.0 0.00 0.04 0.00 49 1006.5
20260503204403 50 292 3.0 8.0 0.00 0.04 0.00 47 1006.5
20260503203404 49 273 1.0 9.0 0.00 0.04 0.00 52 1006.6
20260503202424 48 263 4.0 8.0 0.00 0.04 0.00 49 1006.7
20260503201404 48 309 3.0 10.0 0.00 0.04 0.00 51 1006.8
20260503200404 47 231 3.0 13.0 0.00 0.04 0.00 52 1006.9
20260503195403 48 273 6.0 11.0 0.00 0.04 0.00 52 1007.0
20260503194404 47 253 2.0 8.0 0.00 0.04 0.00 55 1007.1
20260503193403 47 248 5.0 10.0 0.00 0.04 0.00 54 1007.3
20260503192403 47 272 3.0 14.0 0.00 0.04 0.00 53 1007.3
20260503191404 49 293 5.0 12.0 0.00 0.04 0.00 51 1007.3
20260503190403 50 310 3.0 13.0 0.00 0.04 0.00 52 1007.2
20260503185404 49 255 3.0 15.0 0.00 0.04 0.00 53 1007.4
20260503184403 47 272 5.0 11.0 0.00 0.04 0.00 54 1007.4
20260503183425 48 347 1.0 8.0 0.00 0.04 0.00 55 1007.4
20260503182404 47 256 3.0 10.0 0.00 0.04 0.00 56 1007.6
20260503181403 47 270 4.0 8.0 0.00 0.04 0.00 56 1007.6
20260503180404 47 306 2.0 11.0 0.00 0.04 0.00 55 1007.7
20260503175403 47 265 8.0 11.0 0.00 0.04 0.00 55 1007.8
20260503174404 47 274 3.0 10.0 0.00 0.04 0.00 56 1007.8
20260503173403 47 275 4.0 10.0 0.00 0.04 0.00 57 1007.8
20260503172424 46 297 4.0 11.0 0.00 0.04 0.00 56 1007.9
20260503171425 47 288 3.0 12.0 0.00 0.04 0.00 57 1007.9
20260503170404 46 253 6.0 13.0 0.00 0.04 0.00 56 1008.0
20260503150404 47 274 8.0 15.0 0.00 0.04 0.00 58 1008.8
20260503131403 42 290 1.0 11.0 0.00 0.04 0.00 82 1009.5
20260503130403 43 274 3.0 8.0 0.00 0.05 0.00 80 1009.5
20260503110403 37 222 0.0 2.0 0.00 0.08 0.00 90 1009.4
20260503090403 36 223 0.0 0.0 0.00 0.10 0.00 91 1009.5
20260503081403 37 223 0.0 0.0 0.00 0.11 0.00 91 1009.8
20260503080403 37 223 0.0 0.0 0.00 0.11 0.00 91 1009.8
20260503072403 37 223 0.0 0.0 0.00 0.11 0.00 92 1009.8
20260503071403 37 223 0.0 0.0 0.00 0.11 0.00 92 1009.8
20260503070403 37 223 0.0 0.0 0.00 0.11 0.00 92 1009.8
20260503054403 37 223 0.0 0.0 0.00 0.11 0.00 91 1010.2
20260503053424 37 223 0.0 0.0 0.00 0.11 0.00 91 1010.3
20260503052403 37 223 0.0 0.0 0.00 0.11 0.00 91 1010.3
20260503051403 37 222 0.0 1.0 0.00 0.11 0.00 91 1010.4
20260503050403 37 223 0.0 0.0 0.00 0.11 0.00 91 1010.5
20260503045403 37 223 0.0 2.0 0.00 0.11 0.00 91 1010.6
20260503044424 38 222 0.0 3.0 0.00 0.11 0.00 91 1010.7
20260503043403 38 223 0.0 0.0 0.00 0.11 0.00 91 1010.9
20260503042403 38 223 0.0 0.0 0.00 0.11 0.00 91 1010.8
20260503041403 38 223 0.0 0.0 0.00 0.11 0.00 90 1010.9
20260503040403 38 223 0.0 0.0 0.00 0.11 0.00 90 1011.0
20260503035403 38 223 0.0 1.0 0.00 0.11 0.11 90 1011.0
20260503034402 38 222 0.0 1.0 0.00 0.11 0.11 90 1011.1
20260503033403 38 223 0.0 0.0 0.00 0.11 0.11 90 1011.2
20260503032424 38 223 0.0 0.0 0.00 0.11 0.11 90 1011.2
20260503031404 38 223 0.0 0.0 0.00 0.11 0.11 89 1011.2